Regional Weather Roundup
Issued by NWS Kansas City/Pleasant Hill, MO

Home | Current Version | Previous Version | Text Only | Print | Product List | Glossary On
Versions: 1 2 3 4 5 6 7 8 9 10 11 12 13 14 15 16 17 18 19 20 21 22 23 24 25 26 27 28 29 30 31 32 33 34 35 36 37 38 39 40 41 42 43 44 45 46 47 48 49
000
ASUS43 KEAX 030910
RWREAX

WEATHER ROUNDUP FOR EASTERN KANSAS AND NORTHWEST MISSOURI
NATIONAL WEATHER SERVICE KANSAS CITY/PLEASANT HILL MO
400 AM CDT MON AUG 03 2015

KSZ040-057-103>105-MOZ028-029-037-043-031000-
...KANSAS CITY METROPOLITAN AREA...

CITY           SKY/WX    TMP DP  RH WIND       PRES   REMARKS
K.C. INTL      PTCLDY    74  65  73 SE6       29.91F
K.C. DOWNTOWN  CLEAR     75  67  76 NE5       29.90S
LEES SUMMIT    PTCLDY    73  67  81 NE7       29.92S
OLATHE - IXD   CLEAR     73  66  78 SE3       29.93R
OLATHE - OJC   CLEAR     73  65  75 E3        29.92R
LAWRENCE       CLEAR     71  67  87 NE8       29.91R

$$

MOZ001>008-011>017-020>025-030>033-038>040-044>046-053-054-031000-
...NORTHERN AND CENTRAL MISSOURI...

CITY           SKY/WX    TMP DP  RH WIND       PRES   REMARKS
ST. JOSEPH     PTCLDY    71  64  78 E7        29.92R
MOSBY          MOSUNNY   73  61  64 CALM      29.90F
WARRENSBURG    PTCLDY    70  64  83 CALM      29.91R
WHITEMAN AFB   CLEAR     72  65  80 W1        29.90S
CLINTON        PTCLDY    70  68  94 CALM      29.91R
SEDALIA        PTCLDY    73  64  73 SW7       29.90F
WARSAW         NOT AVBL
CHILLICOTHE      N/A     77  62  59 N7G16     29.86F
KIRKSVILLE     MOCLDY    68  60  75 N7        29.88R

$$

MOZ041-047>049-056>058-063>065-088>090-097-031000-
...EASTERN AND SOUTHERN MISSOURI...

CITY           SKY/WX    TMP DP  RH WIND       PRES   REMARKS
ST. LOUIS INTL CLOUDY    81  66  60 W12       29.83S
SPIRIT OF STL  CLOUDY    75  68  78 SW5       29.83R
COLUMBIA       CLOUDY    72  64  76 SW3       29.86R
JEFFERSON CITY CLOUDY    76  63  64 NW5       29.85R
ROLLA          MOCLDY    69  66  90 SW9       29.86F
OSAGE BEACH    PTCLDY    75  64  69 NW5       29.89R
SPRINGFIELD    CLEAR     69  63  81 CALM      29.93F
BRANSON        CLEAR     70  64  83 CALM      29.97R
JOPLIN         PTCLDY    70  66  87 CALM      29.95R
WEST PLAINS    CLEAR     71  67  87 CALM      29.95S

$$

IAZ060-094-KSZ022-034>040-054-083-096-NEZ052-066-093-031000-
...KANSAS...SOUTHEAST NEBRASKA AND IOWA...

CITY           SKY/WX    TMP DP  RH WIND       PRES   REMARKS
TOPEKA         CLEAR     74  69  85 CALM      29.89S
MANHATTAN      CLEAR     72  68  87 CALM      29.89R
EMPORIA        CLEAR     71  65  81 S8        29.92R
CHANUTE        CLEAR     71  65  81 NE5       29.94R
WICHITA        MOCLDY    71  66  84 S6        29.91R
OMAHA          CLEAR     71  64  78 CALM      29.92R
LINCOLN        CLEAR     70  67  90 N6        29.91R
FALLS CITY     PTCLDY    72  65  78 SE6       29.88R
LAMONI         LGT RAIN  67  63  87 N5        29.91R
DES MOINES     PTCLDY    72  59  63 N6        29.91S

$$




USA.gov is the U.S. government's official web portal to all federal, state and local government web resources and services.